Charlevoix, MI

8:10 AM EST on February 10, 2016 (GMT -0500)
Charlevoix Municipal

Weather History for KCVX - October, 2013

Change the Weather History Date:

Friday, October 11, 2013

  Actual Average Record
Temperature  
Mean Temperature 57 °F -  
Max Temperature 68 °F 57 °F 77 °F (2003)
Min Temperature 46 °F 42 °F 33 °F (2004)
Degree Days  
Heating Degree Days 8    
Growing Degree Days 7 (Base 50)    
Moisture  
Dew Point 49 °F    
Average Humidity 80    
Maximum Humidity 99    
Minimum Humidity 44    
Precipitation  
Precipitation 0.00 in - - ()
Sea Level Pressure  
Sea Level Pressure 30.13 in    
Wind  
Wind Speed 5 mph (ESE)    
Max Wind Speed 8 mph    
Max Gust Speed -    
Visibility 10 miles    
Events      
Averages and records for this station are not official NWS values.
T = Trace of Precipitation, MM = Missing Value Source: NWS Daily Summary

Daily Weather History Graph

Daily Weather History Graph

Search for Another Location

Airport or City:

Trip Planner

Search our weather history database for the weather conditions in past years. The results will help you decide how hot, cold, wet, or windy it might be!

Date:

Astronomy

Oct. 11, 2013 Rise Set
Actual Time 7:52 AM EDT 7:02 PM EDT
Civil Twilight 7:22 AM EDT 7:32 PM EDT
Nautical Twilight 6:48 AM EDT 8:06 PM EDT
Astronomical Twilight 6:14 AM EDT 8:40 PM EDT
Moon 2:42 PM EDT (10/11) No Moon Set
Length of Visible Light 12h 09m
Length of Day
11h 10m
Waxing Crescent, 47% of the Moon is Illuminated
Oct 11
Waxing Crescent
Oct 11
First Quarter
Oct 18
Full
Oct 26
Last Quarter
Nov 3
New

Hourly Weather History & Observations

Time (EDT) Temp. Windchill Dew Point Humidity Pressure Visibility Wind Dir Wind Speed Gust Speed Precip Events Conditions
12:15 AM 50.5 °F - 48.7 °F 94% 30.15 in 10.0 mi SE 5.8 mph - N/A   Clear
12:35 AM 49.8 °F - 48.6 °F 95% 30.15 in 10.0 mi SE 5.8 mph - N/A   Clear
12:54 AM 50.0 °F - 48.7 °F 95% 30.15 in 10.0 mi ESE 4.6 mph - N/A   Clear
1:15 AM 50.0 °F - 48.4 °F 94% 30.15 in 10.0 mi ESE 5.8 mph - N/A   Clear
1:35 AM 49.1 °F - 47.7 °F 95% 30.15 in 10.0 mi SE 4.6 mph - N/A   Clear
1:54 AM 48.6 °F - 47.3 °F 95% 30.15 in 10.0 mi ESE 4.6 mph - N/A   Clear
2:15 AM 48.7 °F - 47.3 °F 95% 30.15 in 10.0 mi ESE 5.8 mph - N/A   Clear
2:34 AM 48.6 °F - 47.3 °F 95% 30.15 in 10.0 mi ESE 5.8 mph - N/A   Clear
2:54 AM 48.2 °F - 46.8 °F 95% 30.15 in 10.0 mi SE 4.6 mph - N/A   Clear
3:15 AM 48.4 °F - 46.9 °F 95% 30.15 in 10.0 mi SE 4.6 mph - N/A   Clear
3:34 AM 48.2 °F - 46.9 °F 95% 30.15 in 10.0 mi ESE 5.8 mph - N/A   Clear
3:54 AM 47.5 °F - 46.6 °F 97% 30.15 in 10.0 mi ESE 3.5 mph - N/A   Clear
4:15 AM 47.3 °F - 46.6 °F 97% 30.15 in 10.0 mi SE 4.6 mph - N/A   Clear
4:34 AM 46.4 °F 44.3 °F 45.9 °F 98% 30.15 in 10.0 mi ESE 4.6 mph - N/A   Clear
4:55 AM 46.9 °F - 46.4 °F 98% 30.16 in 10.0 mi SE 4.6 mph - N/A   Clear
5:15 AM 47.3 °F - 46.6 °F 97% 30.16 in 10.0 mi ESE 4.6 mph - N/A   Clear
5:34 AM 47.3 °F - 46.6 °F 97% 30.16 in 10.0 mi ESE 4.6 mph - N/A   Clear
5:55 AM 46.8 °F - 46.4 °F 99% 30.16 in 10.0 mi SE 4.6 mph - N/A   Clear
6:15 AM 46.4 °F 44.3 °F 45.9 °F 98% 30.17 in 10.0 mi ESE 4.6 mph - N/A   Clear
6:34 AM 46.4 °F 44.3 °F 45.7 °F 97% 30.17 in 10.0 mi SE 4.6 mph - N/A   Clear
6:55 AM 46.9 °F - 46.4 °F 98% 30.17 in 10.0 mi SE 5.8 mph - N/A   Clear
7:14 AM 46.6 °F - 46.0 °F 98% 30.17 in 10.0 mi SE 5.8 mph - N/A   Clear
7:35 AM 46.2 °F 43.3 °F 45.7 °F 98% 30.17 in 10.0 mi SE 5.8 mph - N/A   Clear
7:55 AM 46.4 °F 42.9 °F 46.0 °F 99% 30.17 in 10.0 mi ESE 6.9 mph - N/A   Clear
8:14 AM 46.6 °F - 46.0 °F 98% 30.17 in 10.0 mi SE 4.6 mph - N/A   Clear
8:35 AM 47.7 °F - 46.9 °F 97% 30.18 in 10.0 mi SE 4.6 mph - N/A   Clear
8:55 AM 48.6 °F - 47.3 °F 95% 30.18 in 10.0 mi SE 5.8 mph - N/A   Clear
9:14 AM 49.5 °F - 47.7 °F 94% 30.18 in 10.0 mi ESE 5.8 mph - N/A   Clear
9:35 AM 51.3 °F - 48.7 °F 91% 30.18 in 10.0 mi SE 5.8 mph - N/A   Clear
9:55 AM 52.7 °F - 49.3 °F 88% 30.18 in 10.0 mi SE 3.5 mph - N/A   Clear
10:14 AM 54.5 °F - 50.2 °F 85% 30.18 in 10.0 mi SE 4.6 mph - N/A   Clear
10:35 AM 57.2 °F - 50.0 °F 77% 30.17 in 10.0 mi SE 5.8 mph - N/A   Clear
10:54 AM 59.0 °F - 49.3 °F 70% 30.17 in 10.0 mi SE 8.1 mph - N/A   Clear
11:14 AM 60.6 °F - 49.3 °F 66% 30.17 in 10.0 mi SSE 6.9 mph - N/A   Clear
11:35 AM 62.8 °F - 49.5 °F 62% 30.17 in 10.0 mi SE 5.8 mph - N/A   Clear
11:54 AM 64.4 °F - 49.6 °F 59% 30.16 in 10.0 mi SE 3.5 mph - N/A   Clear
12:15 PM 66.0 °F - 48.0 °F 52% 30.16 in 10.0 mi SSE 8.1 mph - N/A   Clear
12:35 PM 66.9 °F - 49.1 °F 53% 30.16 in 10.0 mi ESE 3.5 mph - N/A   Clear
12:54 PM 67.1 °F - 48.2 °F 51% 30.15 in 10.0 mi SSE 6.9 mph - N/A   Clear
1:15 PM 67.3 °F - 48.4 °F 51% 30.15 in 10.0 mi ESE 5.8 mph - N/A   Clear
1:34 PM 68.0 °F - 48.2 °F 49% 30.14 in 10.0 mi East 4.6 mph - N/A   Clear
1:55 PM 68.4 °F - 45.7 °F 44% 30.14 in 10.0 mi Calm Calm - N/A   Clear
2:15 PM 66.7 °F - 52.0 °F 59% 30.14 in 10.0 mi WNW 6.9 mph - N/A   Clear
2:34 PM 66.2 °F - 51.1 °F 58% 30.14 in 10.0 mi NNW 5.8 mph - N/A   Clear
2:55 PM 64.8 °F - 53.8 °F 68% 30.13 in 10.0 mi NNW 6.9 mph - N/A   Clear
3:15 PM 64.6 °F - 53.4 °F 67% 30.13 in 10.0 mi NNW 6.9 mph - N/A   Clear
3:34 PM 64.8 °F - 52.0 °F 63% 30.13 in 10.0 mi NW 5.8 mph - N/A   Clear
3:55 PM 65.3 °F - 51.6 °F 61% 30.13 in 10.0 mi NNW 4.6 mph - N/A   Clear
4:15 PM 64.9 °F - 48.9 °F 56% 30.12 in 10.0 mi NNW 3.5 mph - N/A   Clear
4:34 PM 63.5 °F - 53.6 °F 70% 30.12 in 10.0 mi North 6.9 mph - N/A   Clear
4:55 PM 63.9 °F - 53.4 °F 69% 30.10 in 10.0 mi North 4.6 mph - N/A   Clear
5:14 PM 63.7 °F - 54.1 °F 71% 30.10 in 10.0 mi NNE 3.5 mph - N/A   Clear
5:34 PM 63.7 °F - 51.1 °F 64% 30.09 in 10.0 mi NE 3.5 mph - N/A   Clear
5:55 PM 64.0 °F - 51.6 °F 64% 30.09 in 10.0 mi North 3.5 mph - N/A   Clear
6:14 PM 62.8 °F - 51.6 °F 67% 30.09 in 10.0 mi Calm Calm - N/A   Clear
6:34 PM 62.6 °F - 50.9 °F 66% 30.08 in 10.0 mi Calm Calm - N/A   Clear
6:55 PM 61.2 °F - 50.4 °F 68% 30.07 in 10.0 mi ENE 4.6 mph - N/A   Clear
7:14 PM 60.8 °F - 50.9 °F 70% 30.07 in 10.0 mi Calm Calm - N/A   Clear
7:34 PM 55.6 °F - 50.5 °F 83% 30.07 in 10.0 mi Calm Calm - N/A   Clear
7:55 PM 54.9 °F - 50.9 °F 86% 30.07 in 10.0 mi Calm Calm - N/A   Clear
8:14 PM 52.5 °F - 50.4 °F 92% 30.07 in 10.0 mi Calm Calm - N/A   Clear
8:35 PM 51.3 °F - 50.5 °F 97% 30.07 in 10.0 mi Calm Calm - N/A   Clear
8:55 PM 53.2 °F - 50.7 °F 91% 30.08 in 10.0 mi SE 4.6 mph - N/A   Clear
9:14 PM 54.7 °F - 51.8 °F 90% 30.08 in 10.0 mi SE 3.5 mph - N/A   Clear
9:35 PM 54.0 °F - 49.3 °F 84% 30.08 in 10.0 mi SE 4.6 mph - N/A   Clear
9:55 PM 53.8 °F - 48.9 °F 84% 30.07 in 10.0 mi SSE 4.6 mph - N/A   Clear
10:14 PM 54.1 °F - 47.7 °F 79% 30.08 in 10.0 mi SE 3.5 mph - N/A   Clear
10:35 PM 54.5 °F - 46.9 °F 76% 30.08 in 10.0 mi SE 4.6 mph - N/A   Clear
10:54 PM 53.8 °F - 46.4 °F 76% 30.07 in 10.0 mi SE 4.6 mph - N/A   Clear
11:14 PM 54.5 °F - 45.9 °F 73% 30.08 in 10.0 mi SE 5.8 mph - N/A   Clear
11:35 PM 54.0 °F - 45.1 °F 72% 30.08 in 10.0 mi SE 5.8 mph - N/A   Clear
11:54 PM 53.8 °F - 44.8 °F 72% 30.08 in 10.0 mi SE 4.6 mph - N/A   Clear